Regional Weather Roundup
Issued by NWS

Home | Current Version | Previous Version | Text Only | Print | Product List | Glossary On
Versions: 1 2 3 4 5 6 7 8 9 10 11 12 13 14 15 16 17 18 19 20 21 22 23 24 25 26 27 28 29 30 31 32 33 34 35 36 37 38 39 40 41 42 43 44 45 46 47 48 49 50
000
ASUS46 KSEW 252310
RWRWA

WASHINGTON REGIONAL WEATHER ROUNDUP
NATIONAL WEATHER SERVICE SEATTLE WA
300 PM PST SAT FEB 25 2017

NOTE:"FAIR" INDICATES FEW OR NO CLOUDS BELOW 12,000 FEET WITH NO
SIGNIFICANT WEATHER AND/OR OBSTRUCTIONS TO VISIBILITY.

WAZ507-509-555>559-260000-
SEATTLE, TACOMA, EVERETT, AND VICINITY

CITY           SKY/WX    TMP DP  RH WIND       PRES   REMARKS
EVERETT        LGT RAIN  39  33  79 CALM      30.12F
BOEING FIELD   CLOUDY    44  32  62 SW6       30.14F
RENTON         CLOUDY    44  31  60 S6        30.14F
SEATAC AIRPORT CLOUDY    43  31  62 SW7       30.13F
JBLM-MCCHORD   MOSUNNY   46  31  58 SW12      30.12F
PUYALLUP         N/A     46  30  53 S8G16     30.12F
BREMERTON      CLOUDY    45  34  65 S5        30.14F
JBLM-FT LEWIS  PTSUNNY   45  32  59 S12       30.12F
TACOMA NARROWS CLOUDY    43  32  65 S9        30.12F
$$

WAZ001-503-506-510-514-515-260000-
NORTH INTERIOR

CITY           SKY/WX    TMP DP  RH WIND       PRES   REMARKS
BELLINGHAM     CLOUDY    42  33  70 S9        30.10F
FRIDAY HARBOR  CLOUDY    44  31  60 SW7       30.11F
EASTSOUND      CLOUDY    41  32  70 S8        30.09F
PORT ANGELES   CLOUDY    41  35  79 NW7G17    30.12F
EDIZ HOOK      CLOUDY    43  34  70 NW13      30.12F
PORT TOWNSEND  CLOUDY    43  34  70 SE7       30.13F
NAS WHIDBEY    CLOUDY    45  25  45 S7        30.15F
ARLINGTON      PTSUNNY   43  27  52 S8        30.15F
BURLINGTON     PTSUNNY   43  32  65 S7G14     30.12F
$$

WAZ020-022-039-040-504-511-512-260000-
SOUTHWEST INTERIOR

CITY           SKY/WX    TMP DP  RH WIND       PRES   REMARKS
SHELTON        CLOUDY    46  28  49 W12       30.10F
OLYMPIA        PTSUNNY   45  31  58 SW8       30.13F
CHEHALIS       CLOUDY    46  32  57 S3        30.15F
KELSO          MOSUNNY   46  32  58 CALM      30.17F
VANCOUVER      CLOUDY    47  32  56 CALM      30.16F
SCAPPOOSE, OR  PTSUNNY   45  36  70 VRB3      30.16F
PORTLAND, OR   PTSUNNY   46  32  58 CALM      30.17F
$$

WAZ021-516-517-260000-
WASHINGTON COAST

CITY           SKY/WX    TMP DP  RH WIND       PRES   REMARKS
FORKS          CLOUDY    39  38  96 S3        30.14F
HOQUIAM        PTSUNNY   43  36  76 SW12      30.16F
ASTORIA, OR    MOSUNNY   45  33  63 W9        30.18F
$$

WAZ019-023-024-040-567>569-260000-
CASCADE MOUNTAINS AND COLUMBIA GORGE

CITY           SKY/WX    TMP DP  RH WIND       PRES   REMARKS
STAMPEDE PASS  NOT AVBL
TROUTDALE, OR  SUNNY     48  32  53 VRB3      30.16F
THE DALLES, OR SUNNY     50  27  40 NW17G25   30.09F
$$

WAZ026-027-041>044-520-521-260000-
EAST SLOPES

CITY           SKY/WX    TMP DP  RH WIND       PRES   REMARKS
OMAK           PTSUNNY   31  19  61 S9        29.97F
WENATCHEE      SUNNY     34  21  59 E7        29.98F
ELLENSBURG     PTSUNNY   38  24  57 NW23G30   29.99F
YAKIMA         MOSUNNY   41  24  51 CALM      30.04F
SUNNYSIDE ARPT CLEAR     41  26  53 E3        30.05F
$$

WAZ028-034-035-260000-
COLUMBIA BASIN

CITY           SKY/WX    TMP DP  RH WIND       PRES   REMARKS
EPHRATA        SUNNY     37  22  54 S6        29.99F
MOSES LAKE     SUNNY     39  24  55 S10       30.01F
PASCO          MOSUNNY   47  23  38 SW15      30.08F
HERMISTON, OR  MOSUNNY   47  25  42 W10       30.06F
$$

WAZ036>038-260000-
NORTHEAST WASHINGTON

CITY           SKY/WX    TMP DP  RH WIND       PRES   REMARKS
SPOKANE GEIGER PTSUNNY   32  22  66 SW15      29.96F WCI  22
SPOKANE FELTS  PTSUNNY   35  22  58 W9        29.99F
FAIRCHILD AFB  MOSUNNY   32  24  74 SW13      29.95F WCI  22
COEURDALENE,ID MOSUNNY   32  23  69 SW13      29.97F WCI  22
DEER PARK      SUNNY     31  21  66 SW15      29.96F WCI  20
$$

WAZ029>033-260000-
SOUTHEAST WASHINGTON

CITY           SKY/WX    TMP DP  RH WIND       PRES   REMARKS
PULLMAN        CLOUDY    34  23  64 W10       30.02F WCI  26
LEWISTON, ID   CLOUDY    42  21  43 CALM      30.03F
WALLA WALLA    MOSUNNY   43  25  49 W10       30.05F
PENDLETON, OR  SUNNY     42  27  55 W13       30.04F
$$



USA.gov is the U.S. government's official web portal to all federal, state and local government web resources and services.